Gwinner, ND

8:07 AM CDT on March 23, 2017 (GMT -0500)
Gwinner-melroe

Weather History for KGWR - October, 2012

Change the Weather History Date:

Monday, October 1, 2012

  Actual Average (KP67) Record (KP67)
Temperature  
Mean Temperature 55 °F -  
Max Temperature 69 °F 67 °F 84 °F (1997)
Min Temperature 41 °F 41 °F 39 °F (1996)
Degree Days  
Heating Degree Days 10    
Growing Degree Days 5 (Base 50)    
Moisture  
Dew Point 35 °F    
Average Humidity 43    
Maximum Humidity 61    
Minimum Humidity 24    
Precipitation  
Precipitation 0.00 in - - ()
Sea Level Pressure  
Sea Level Pressure 30.06 in    
Wind  
Wind Speed 13 mph (NW)    
Max Wind Speed 18 mph    
Max Gust Speed 25 mph    
Visibility 10 miles    
Events      
Averages and records for this station are not official NWS values.
T = Trace of Precipitation, MM = Missing Value Source: NWS Daily Summary

Daily Weather History Graph

Daily Weather History Graph

Search for Another Location

Airport or City:

Trip Planner

Search our weather history database for the weather conditions in past years. The results will help you decide how hot, cold, wet, or windy it might be!

Date:

Astronomy

Oct. 01, 2012 Rise Set
Actual Time 7:29 AM CDT 7:09 PM CDT
Civil Twilight 6:59 AM CDT 7:39 PM CDT
Nautical Twilight 6:24 AM CDT 8:14 PM CDT
Astronomical Twilight 5:49 AM CDT 8:49 PM CDT
Moon 7:37 PM CDT (10/1) 9:08 AM CDT (10/1)
Length of Visible Light 12h 39m
Length of Day
11h 39m
Full, 98% of the Moon is Illuminated
Oct 1
Full
Oct 8
Last Quarter
Oct 15
New
Oct 21
First Quarter
Oct 29
Full

Hourly Weather History & Observations

Time (CDT) Temp. Windchill Dew Point Humidity Pressure Visibility Wind Dir Wind Speed Gust Speed Precip Events Conditions
12:15 AM 64.4 °F - 42.8 °F 45% 29.99 in 10.0 mi NNW 13.8 mph - 0.00 in   Clear
12:35 AM 62.6 °F - 41.0 °F 45% 29.99 in 10.0 mi NNW 15.0 mph - 0.00 in   Clear
12:55 AM 62.6 °F - 41.0 °F 45% 30.00 in 10.0 mi NNW 16.1 mph - 0.00 in   Clear
1:15 AM 62.6 °F - 39.2 °F 42% 30.00 in 10.0 mi NNW 17.3 mph - 0.00 in   Clear
1:35 AM 62.6 °F - 39.2 °F 42% 30.01 in 10.0 mi NNW 15.0 mph - 0.00 in   Clear
1:55 AM 60.8 °F - 39.2 °F 45% 30.01 in 10.0 mi NNW 15.0 mph - 0.00 in   Partly Cloudy
2:15 AM 60.8 °F - 39.2 °F 45% 30.02 in 10.0 mi NNW 13.8 mph 18.4 mph 0.00 in   Partly Cloudy
2:35 AM 60.8 °F - 39.2 °F 45% 30.02 in 10.0 mi NNW 13.8 mph - 0.00 in   Partly Cloudy
2:55 AM 60.8 °F - 39.2 °F 45% 30.02 in 10.0 mi NNW 15.0 mph - 0.00 in   Clear
3:15 AM 60.8 °F - 39.2 °F 45% 30.02 in 10.0 mi NNW 12.7 mph - 0.00 in   Partly Cloudy
3:35 AM 59.0 °F - 39.2 °F 48% 30.02 in 10.0 mi NNW 12.7 mph - 0.00 in   Mostly Cloudy
3:55 AM 57.2 °F - 39.2 °F 51% 30.03 in 10.0 mi NNW 9.2 mph - 0.00 in   Mostly Cloudy
4:15 AM 57.2 °F - 39.2 °F 51% 30.03 in 10.0 mi NNW 8.1 mph - 0.00 in   Scattered Clouds
4:35 AM 55.4 °F - 39.2 °F 54% 30.04 in 10.0 mi NW 9.2 mph - 0.00 in   Mostly Cloudy
4:55 AM 57.2 °F - 39.2 °F 51% 30.04 in 10.0 mi NNW 10.4 mph - 0.00 in   Overcast
5:15 AM 57.2 °F - 39.2 °F 51% 30.05 in 10.0 mi NW 11.5 mph - 0.00 in   Mostly Cloudy
5:35 AM 57.2 °F - 39.2 °F 51% 30.05 in 10.0 mi NW 12.7 mph - 0.00 in   Mostly Cloudy
5:55 AM 57.2 °F - 39.2 °F 51% 30.06 in 10.0 mi NW 15.0 mph - 0.00 in   Mostly Cloudy
6:15 AM 57.2 °F - 41.0 °F 55% 30.06 in 10.0 mi NW 12.7 mph 20.7 mph 0.00 in   Scattered Clouds
6:35 AM 55.4 °F - 41.0 °F 58% 30.07 in 10.0 mi NW 15.0 mph - 0.00 in   Partly Cloudy
6:55 AM 55.4 °F - 41.0 °F 58% 30.07 in 10.0 mi NNW 15.0 mph - 0.00 in   Mostly Cloudy
7:15 AM 55.4 °F - 41.0 °F 58% 30.08 in 10.0 mi NW 15.0 mph - 0.00 in   Overcast
7:35 AM 55.4 °F - 41.0 °F 58% 30.08 in 10.0 mi NNW 13.8 mph - 0.00 in   Overcast
7:55 AM 55.4 °F - 41.0 °F 58% 30.09 in 10.0 mi NNW 11.5 mph - 0.00 in   Overcast
8:15 AM 55.4 °F - 39.2 °F 54% 30.09 in 10.0 mi NNW 10.4 mph - 0.00 in   Overcast
8:35 AM 55.4 °F - 39.2 °F 54% 30.10 in 10.0 mi NW 9.2 mph - 0.00 in   Overcast
8:55 AM 55.4 °F - 39.2 °F 54% 30.11 in 10.0 mi NW 11.5 mph - 0.00 in   Scattered Clouds
9:35 AM 55.4 °F - 39.2 °F 54% 30.12 in 10.0 mi NNW 16.1 mph - 0.00 in   Clear
9:55 AM 57.2 °F - 39.2 °F 51% 30.13 in 10.0 mi NNW 13.8 mph - 0.00 in   Clear
10:15 AM 57.2 °F - 39.2 °F 51% 30.13 in 10.0 mi NNW 15.0 mph - 0.00 in   Clear
10:35 AM 60.8 °F - 39.2 °F 45% 30.13 in 10.0 mi NNW 12.7 mph - 0.00 in   Clear
10:55 AM 60.8 °F - 39.2 °F 45% 30.13 in 10.0 mi North 12.7 mph - 0.00 in   Clear
11:15 AM 62.6 °F - 37.4 °F 39% 30.13 in 10.0 mi North 13.8 mph - 0.00 in   Clear
11:35 AM 64.4 °F - 37.4 °F 37% 30.13 in 10.0 mi North 12.7 mph 18.4 mph 0.00 in   Clear
11:55 AM 64.4 °F - 37.4 °F 37% 30.12 in 10.0 mi North 16.1 mph 19.6 mph 0.00 in   Clear
12:15 PM 64.4 °F - 37.4 °F 37% 30.12 in 10.0 mi North 13.8 mph 19.6 mph 0.00 in   Clear
12:35 PM 66.2 °F - 35.6 °F 32% 30.12 in 10.0 mi NNW 17.3 mph 21.9 mph 0.00 in   Clear
12:55 PM 66.2 °F - 35.6 °F 32% 30.11 in 10.0 mi NNW 15.0 mph 19.6 mph 0.00 in   Clear
1:15 PM 66.2 °F - 33.8 °F 30% 30.11 in 10.0 mi NNW 17.3 mph 20.7 mph 0.00 in   Clear
1:35 PM 66.2 °F - 33.8 °F 30% 30.10 in 10.0 mi NW 18.4 mph 21.9 mph 0.00 in   Clear
1:55 PM 68.0 °F - 32.0 °F 26% 30.09 in 10.0 mi North 13.8 mph 25.3 mph 0.00 in   Clear
2:15 PM 68.0 °F - 33.8 °F 28% 30.09 in 10.0 mi NNW 17.3 mph 25.3 mph 0.00 in   Clear
2:35 PM 68.0 °F - 32.0 °F 26% 30.08 in 10.0 mi NNW 15.0 mph 24.2 mph 0.00 in   Clear
2:55 PM 69.8 °F - 32.0 °F 25% 30.08 in 10.0 mi NNW 12.7 mph 24.2 mph 0.00 in   Clear
3:15 PM 69.8 °F - 32.0 °F 25% 30.07 in 10.0 mi NNW 18.4 mph 23.0 mph 0.00 in   Clear
3:35 PM 69.8 °F - 32.0 °F 25% 30.07 in 10.0 mi NNW 17.3 mph 23.0 mph 0.00 in   Clear
3:55 PM 69.8 °F - 32.0 °F 25% 30.06 in 10.0 mi NW 13.8 mph 19.6 mph 0.00 in   Clear
4:15 PM 69.8 °F - 32.0 °F 25% 30.06 in 10.0 mi NNW 17.3 mph 21.9 mph 0.00 in   Clear
4:35 PM 69.8 °F - 32.0 °F 25% 30.06 in 10.0 mi NNW 17.3 mph 20.7 mph 0.00 in   Clear
5:15 PM 68.0 °F - 32.0 °F 26% 30.05 in 10.0 mi NNW 16.1 mph - 0.00 in   Clear
5:35 PM 68.0 °F - 30.2 °F 24% 30.06 in 10.0 mi North 13.8 mph - 0.00 in   Clear
5:55 PM 66.2 °F - 30.2 °F 26% 30.05 in 10.0 mi NNW 11.5 mph - 0.00 in   Clear
6:15 PM 66.2 °F - 30.2 °F 26% 30.05 in 10.0 mi NNW 9.2 mph - 0.00 in   Clear
6:35 PM 64.4 °F - 30.2 °F 28% 30.05 in 10.0 mi NNW 8.1 mph - 0.00 in   Clear
6:55 PM 60.8 °F - 32.0 °F 34% 30.04 in 10.0 mi NNW 6.9 mph - 0.00 in   Clear
7:15 PM 60.8 °F - 30.2 °F 31% 30.05 in 10.0 mi NW 6.9 mph - 0.00 in   Clear
7:35 PM 57.2 °F - 30.2 °F 36% 30.05 in 10.0 mi NW 8.1 mph - 0.00 in   Clear
7:55 PM 55.4 °F - 30.2 °F 38% 30.04 in 10.0 mi NW 6.9 mph - 0.00 in   Clear
8:15 PM 57.2 °F - 30.2 °F 36% 30.04 in 10.0 mi NW 6.9 mph - 0.00 in   Clear
8:55 PM 51.8 °F - 30.2 °F 44% 30.03 in 10.0 mi Calm Calm - 0.00 in   Clear
9:15 PM 46.4 °F - 28.4 °F 50% 30.03 in 8.0 mi Calm Calm - 0.00 in   Clear
9:35 PM 44.6 °F 43.1 °F 26.6 °F 49% 30.03 in 8.0 mi West 3.5 mph - 0.00 in   Clear
9:55 PM 42.8 °F 40.1 °F 26.6 °F 53% 30.03 in 9.0 mi West 4.6 mph - 0.00 in   Clear
10:15 PM 41.0 °F 38.0 °F 26.6 °F 57% 30.03 in 10.0 mi WSW 4.6 mph - 0.00 in   Clear
10:35 PM 42.8 °F 39.3 °F 28.4 °F 57% 30.02 in 10.0 mi WSW 5.8 mph - 0.00 in   Clear
10:55 PM 41.0 °F 35.8 °F 26.6 °F 57% 30.01 in 10.0 mi WSW 8.1 mph - 0.00 in   Clear
11:15 PM 41.0 °F 36.4 °F 26.6 °F 57% 30.01 in 10.0 mi WSW 6.9 mph - 0.00 in   Clear
11:35 PM 41.0 °F 35.8 °F 28.4 °F 61% 30.01 in 10.0 mi West 8.1 mph - 0.00 in   Clear